Location: Ferchesar
(52.6477°N, 12.4298°E)
Time: 02:56:36
(UTC+01:00)

Explorer 7 - Pass Details

Date: 13 December 2021
Orbit: 483 x 674 km, 50.3° (Epoch: 21 January)

Event Time Altitude Azimuth Distance (km) Brightness Sun altitude
Rises 06:49:49 0° 278° (W) 2,824 - -11.7°
Reaches altitude 10° 06:52:13 10° 272° (W) 1,886 - -11.4°
Exits shadow 06:52:51 14° 269° (W) 1,650 8.7 -11.3°
Maximum altitude 06:56:18 44° 200° (SSW) 769 7.6 -10.8°
Drops below altitude 10° 07:00:08 10° 128° (SE) 1,770 10.9 -10.3°
Sets 07:02:21 0° 122° (ESE) 2,629 12.5 -10.0°
